Codrington, Antigua

10:59 AM AST on June 25, 2018 (GMT -0400)
Codrington

Weather History for 78862 - December, 2003

Change the Weather History Date:

Friday, December 19, 2003

  Actual Average Record
Temperature  
Mean Temperature 78 °F -  
Max Temperature 82 °F 81 °F - ()
Min Temperature 73 °F 72 °F - ()
Cooling Degree Days 12    
Growing Degree Days 28 (Base 50)    
Moisture  
Dew Point 71 °F    
Average Humidity 80    
Maximum Humidity 94    
Minimum Humidity 69    
Precipitation  
Precipitation 0.00 in - - ()
Sea Level Pressure  
Sea Level Pressure 30.01 in    
Wind  
Wind Speed 7 mph ()    
Max Wind Speed 15 mph    
Max Gust Speed -    
Visibility 6.2 miles    
Events      
T = Trace of Precipitation, MM = Missing Value Source: Averaged Metar Reports

Daily Weather History Graph

Daily Weather History Graph

Search for Another Location

Airport or City:

Astronomy

Dec. 19, 2003 Rise Set
Actual Time 6:30 AM AST 5:37 PM AST
Civil Twilight 6:07 AM AST 6:01 PM AST
Nautical Twilight 5:40 AM AST 6:28 PM AST
Astronomical Twilight 5:13 AM AST 6:54 PM AST
Moon 2:21 AM AST (12/19) 2:17 PM AST (12/19)
Length of Visible Light 11h 53m
Length of Day
11h 06m
Waning Crescent, 19% of the Moon is Illuminated
Dec 19
Waning Crescent
Dec 23
New
Dec 30
First Quarter
Jan 7
Full
Jan 15
Last Quarter

Hourly Weather History & Observations

Time (AST) Temp. Heat Index Dew Point Humidity Pressure Visibility Wind Dir Wind Speed Gust Speed Precip Events Conditions
12:00 AM 77.0 °F - 66.2 °F 69% 30.01 in 6.2 mi ESE 11.5 mph - N/A   Scattered Clouds
1:00 AM 77.0 °F - 68.0 °F 74% 30.01 in 6.2 mi ESE 6.9 mph - N/A   Partly Cloudy
2:00 AM 73.4 °F - 66.2 °F 78% 30.01 in 6.2 mi Variable 1.2 mph - N/A   Scattered Clouds
3:00 AM 73.4 °F - 68.0 °F 83% 29.98 in 6.2 mi Variable 1.2 mph - N/A   Mostly Cloudy
4:00 AM 73.4 °F - 71.6 °F 94% 29.98 in 6.2 mi ENE 10.4 mph - N/A   Unknown
5:00 AM 73.4 °F - 71.6 °F 94% 29.98 in 6.2 mi ESE 2.3 mph - N/A   Scattered Clouds
6:00 AM 73.4 °F - 71.6 °F 94% 30.01 in 6.2 mi SW 3.5 mph - N/A   Scattered Clouds
7:00 AM 73.4 °F - 71.6 °F 94% 30.04 in 6.2 mi Calm Calm - N/A   Mostly Cloudy
8:00 AM 78.8 °F - 73.4 °F 83% 30.06 in 6.2 mi Variable 2.3 mph - N/A   Scattered Clouds
9:00 AM 78.8 °F - 73.4 °F 83% 30.09 in 6.2 mi SE 9.2 mph - N/A   Mostly Cloudy
10:00 AM 80.6 °F 85.4 °F 73.4 °F 79% 30.06 in 6.2 mi SE 11.5 mph - N/A   Mostly Cloudy
11:00 AM 80.6 °F 84.6 °F 71.6 °F 74% 30.06 in 6.2 mi ESE 13.8 mph - N/A   Mostly Cloudy
12:00 PM 82.4 °F 87.2 °F 71.6 °F 70% 30.04 in 6.2 mi SE 13.8 mph - N/A   Unknown
1:00 PM 80.6 °F 85.4 °F 73.4 °F 79% 29.98 in 6.2 mi ESE 12.7 mph - N/A   Mostly Cloudy
2:00 PM 80.6 °F 85.4 °F 73.4 °F 79% 29.98 in 6.2 mi ESE 13.8 mph - N/A   Mostly Cloudy
3:00 PM 80.6 °F 84.6 °F 71.6 °F 74% 29.95 in 6.2 mi ESE 15.0 mph - N/A   Scattered Clouds
5:00 PM 80.6 °F 83.9 °F 69.8 °F 70% 29.98 in 6.2 mi ESE 13.8 mph - N/A   Scattered Clouds
6:00 PM 78.8 °F - 69.8 °F 74% 29.98 in 6.2 mi SE 12.7 mph - N/A   Scattered Clouds
8:00 PM 78.8 °F - 69.8 °F 74% 30.04 in 6.2 mi SE 12.7 mph - N/A   Partly Cloudy
10:00 PM 78.8 °F - 69.8 °F 74% 30.04 in 6.2 mi ESE 12.7 mph - N/A   Partly Cloudy